Location: Unspecified
(50.7693°N, 0.0000°E)
Time: 07:05:48
(UTC+00:00)

Transit 2A - Pass Details

Date: 21 August 2020
Orbit: 591 x 967 km, 66.7° (Epoch: 20 September)

Event Time Altitude Azimuth Distance (km) Brightness Sun altitude
Rises 19:39:44 0° 259° (W) 3,530 10.4 -5.5°
Reaches altitude 10° 19:42:32 10° 270° (W) 2,634 10.0 -5.9°
Maximum altitude 19:47:57 30° 330° (NNW) 1,643 8.5 -6.7°
Drops below altitude 10° 19:53:32 10° 31° (NNE) 2,718 8.8 -7.4°
Sets 19:56:28 0° 42° (NE) 3,660 9.4 -7.8°
